FW9070 Weather Reports


time (UTC)temp
C
wind
direction
speed
KPH
gust
KPH
rain 1hr
cm
rain 24hr
cm
rain mn
cm
humidity
%
barometer
mb
20260506123508 11 205 0.0 0.0 0.00 0.00 0.00 91 1020.4
20260506123029 11 205 0.0 0.0 0.00 0.00 0.00 91 1020.4
20260506122510 11 205 0.0 0.0 0.00 0.00 0.00 91 1020.4
20260506122012 11 205 0.0 0.0 0.00 0.00 0.00 91 1020.3
20260506121526 11 205 0.0 0.0 0.00 0.00 0.00 91 1020.3
20260506121011 11 205 0.0 0.0 0.00 0.00 0.00 91 1020.2
20260506120507 11 205 0.0 0.0 0.00 0.00 0.00 91 1020.2
20260506115505 11 205 0.0 0.0 0.00 0.00 0.00 91 1020.1
20260506115011 11 205 0.0 0.0 0.00 0.00 0.00 91 1020.1
20260506114520 11 205 0.0 0.0 0.00 0.00 0.00 91 1020.2
20260506114011 11 205 0.0 0.0 0.00 0.00 0.00 92 1020.1
20260506113511 11 205 0.0 0.0 0.00 0.00 0.00 91 1020.1
20260506113029 11 205 0.0 0.0 0.00 0.00 0.00 91 1020.1
20260506112507 11 205 0.0 0.0 0.00 0.00 0.00 91 1019.9
20260506112015 11 205 0.0 0.0 0.00 0.00 0.00 92 1020.0
20260506111523 11 205 0.0 0.0 0.00 0.00 0.00 92 1020.0
20260506111017 11 205 0.0 0.0 0.00 0.00 0.00 92 1019.8
20260506110507 11 205 0.0 0.0 0.00 0.00 0.00 92 1019.8
20260506110016 11 205 0.0 0.0 0.00 0.00 0.00 92 1019.8
20260506105508 11 205 0.0 0.0 0.00 0.00 0.00 92 1019.7
20260506105008 11 205 0.0 0.0 0.00 0.00 0.00 93 1019.7
20260506104522 11 205 0.0 0.0 0.00 0.00 0.00 93 1019.6
20260506104010 11 205 0.0 0.0 0.00 0.00 0.00 93 1019.6
20260506103511 11 205 0.0 0.0 0.00 0.00 0.00 93 1019.6
20260506103029 11 205 0.0 0.0 0.00 0.00 0.00 93 1019.6
20260506102510 11 205 0.0 0.0 0.00 0.00 0.00 93 1019.5
20260506102010 11 205 0.0 0.0 0.00 0.00 0.00 93 1019.4
20260506101526 11 205 0.0 0.0 0.00 0.00 0.00 93 1019.4
20260506101010 11 205 0.0 0.0 0.00 0.00 0.00 93 1019.5
20260506095508 11 205 0.0 0.0 0.00 0.00 0.00 93 1019.4
20260506095007 11 205 0.0 0.0 0.00 0.00 0.00 93 1019.5
20260506094524 11 205 0.0 0.0 0.00 0.00 0.00 93 1019.4
20260506094005 11 205 0.0 0.0 0.00 0.00 0.00 93 1019.4
20260506093503 12 205 0.0 0.0 0.00 0.00 0.00 93 1019.4
20260506093006 12 205 0.0 0.0 0.00 0.00 0.00 93 1019.4
20260506092504 12 205 0.0 0.0 0.00 0.00 0.00 93 1019.5
20260506092007 12 205 0.0 0.0 0.00 0.00 0.00 92 1019.5
20260506091517 12 205 0.0 0.0 0.00 0.00 0.00 92 1019.5
20260506091003 12 205 0.0 0.0 0.00 0.00 0.00 92 1019.5
20260506090503 12 205 0.0 0.0 0.00 0.00 0.00 92 1019.5
20260506090006 12 205 0.0 0.0 0.00 0.00 0.00 92 1019.5
20260506085508 12 205 0.0 0.0 0.00 0.00 0.00 92 1019.5
20260506085003 12 205 0.0 0.0 0.00 0.00 0.00 92 1019.5
20260506084503 12 205 0.0 0.0 0.00 0.00 0.00 91 1019.4
20260506084004 12 205 0.0 0.0 0.00 0.00 0.00 91 1019.5
20260506083504 12 205 0.0 0.0 0.00 0.00 0.00 91 1019.5
20260506083008 12 205 0.0 0.0 0.00 0.00 0.00 91 1019.5
20260506082505 12 205 0.0 0.0 0.00 0.00 0.00 91 1019.5
20260506082009 12 205 0.0 0.0 0.00 0.00 0.00 91 1019.5
20260506081518 12 205 0.0 0.0 0.00 0.00 0.00 91 1019.5
20260506081005 12 205 0.0 0.0 0.00 0.00 0.00 90 1019.5
20260506080503 12 205 0.0 0.0 0.00 0.00 0.00 91 1019.5
20260506073012 12 205 0.0 0.0 0.00 0.03 0.00 90 1019.4
20260506072513 12 205 0.0 0.0 0.00 0.03 0.00 90 1019.3
20260506071519 12 205 0.0 0.0 0.00 0.03 0.00 90 1019.2
20260506071003 12 205 0.0 0.0 0.00 0.03 0.00 90 1019.2
20260506070503 12 205 0.0 0.0 0.00 0.05 0.00 90 1019.1
20260506062010 12 236 0.0 3.2 0.00 0.15 0.05 89 1018.7
20260506061540 12 141 0.0 1.6 0.00 0.15 0.05 88 1018.7
20260506061004 12 141 0.0 0.0 0.00 0.15 0.05 88 1018.6
20260506060504 12 141 0.0 0.0 0.00 0.18 0.05 88 1018.6
20260506051004 13 165 0.0 0.0 0.00 0.33 0.05 88 1018.1
20260506050506 13 165 0.0 0.0 0.00 0.33 0.05 88 1018.1
20260506045007 13 165 0.0 0.0 0.00 0.33 0.05 88 1017.8
20260506044520 13 165 0.0 0.0 0.00 0.33 0.05 88 1017.9
20260506044004 13 165 0.0 0.0 0.00 0.33 0.05 88 1017.8
20260506043508 13 165 0.0 0.0 0.00 0.33 0.05 88 1017.7
20260506043034 13 165 0.0 0.0 0.00 0.33 0.05 88 1017.6
20260506042506 13 165 0.0 0.0 0.00 0.36 0.05 88 1017.7
20260506042008 13 165 0.0 0.0 0.00 0.36 0.05 88 1017.5
20260506041524 13 165 0.0 0.0 0.00 0.38 0.05 87 1017.4
20260506041003 13 165 0.0 0.0 0.00 0.38 0.05 87 1017.4
20260506040504 13 165 0.0 0.0 0.00 0.41 0.05 87 1017.2
20260506040007 13 165 0.0 0.0 0.00 0.43 0.05 86 1017.3
20260506035505 13 165 0.0 0.0 0.00 0.46 0.05 86 1017.3
20260506035009 13 165 0.0 0.0 0.00 0.46 0.05 86 1017.4
20260506034514 13 165 0.0 0.0 0.00 0.48 0.05 86 1017.4
20260506034007 13 165 0.0 0.0 0.00 0.51 0.05 86 1017.5
20260506033507 13 165 0.0 0.0 0.00 0.53 0.05 86 1017.4
20260506033019 13 165 0.0 0.0 0.00 0.56 0.05 85 1017.3
20260506032507 13 165 0.0 0.0 0.00 0.58 0.05 85 1017.2
20260506032009 13 165 0.0 0.0 0.00 0.58 0.05 84 1017.1
20260506031529 13 165 0.0 0.0 0.00 0.61 0.05 84 1017.1
20260506031006 13 165 0.0 0.0 0.00 0.66 0.05 84 1017.0
20260506030503 13 165 0.0 0.0 0.00 0.71 0.05 84 1016.8
20260506030007 13 165 0.0 0.0 0.00 0.79 0.05 84 1016.6
20260506025504 13 157 0.0 0.0 0.00 0.84 0.05 84 1016.6
20260506025004 13 150 0.0 0.0 0.00 0.86 0.05 83 1016.6
20260506024531 14 192 0.0 0.0 0.00 0.91 0.05 83 1016.5
20260506024007 14 196 0.0 4.8 0.00 0.94 0.05 83 1016.6
20260506023508 14 194 0.0 4.8 0.00 0.97 0.05 83 1016.6
20260506023022 14 207 0.0 1.6 0.00 0.99 0.05 83 1016.5
20260506022511 14 210 0.0 1.6 0.00 0.99 0.05 82 1016.5
20260506022007 14 210 0.0 3.2 0.00 0.99 0.05 82 1016.5
20260506021524 14 259 0.0 6.4 0.00 0.99 0.05 82 1016.2
20260506020504 14 193 0.0 4.8 0.00 1.02 0.05 82 1016.1
20260506015007 14 200 0.0 4.8 0.00 1.04 0.05 81 1016.3
20260506014008 14 254 0.0 0.0 0.00 1.07 0.05 82 1016.3
20260506013023 14 246 0.0 0.0 0.00 1.12 0.05 82 1016.3
20260506012508 14 242 0.0 1.6 0.00 1.14 0.05 82 1016.3
20260506012012 14 225 0.0 3.2 0.00 1.14 0.05 81 1016.3
20260506011505 14 190 0.0 3.2 0.00 1.14 0.05 80 1016.2
20260506011008 14 59 0.0 0.0 0.00 1.17 0.05 81 1016.3
20260506010504 14 59 0.0 3.2 0.00 1.17 0.05 82 1016.1
20260506005505 14 103 0.0 4.8 0.00 1.17 0.05 82 1016.1
20260506005007 14 209 0.0 4.8 0.00 1.19 0.05 82 1016.1
20260506004007 14 227 0.0 1.6 0.00 1.22 0.05 81 1016.0
20260506003510 14 184 0.0 1.6 0.00 1.24 0.05 82 1016.0
20260506003021 14 113 0.0 0.0 0.00 1.24 0.05 82 1015.9
20260506002509 14 132 0.0 1.6 0.00 1.24 0.05 82 1016.0
20260506002010 14 166 0.0 1.6 0.00 1.27 0.05 83 1016.0
20260506001507 14 138 0.0 3.2 0.00 1.27 0.05 82 1016.0
20260506001003 14 133 0.0 3.2 0.00 1.27 0.05 82 1016.0
20260506000508 14 168 0.0 8.0 0.00 1.30 0.05 82 1016.0
20260506000011 14 150 0.0 8.0 0.00 1.32 0.05 81 1015.9
20260505235508 14 208 1.6 6.4 0.00 1.32 0.05 80 1015.9
20260505235008 14 192 0.0 4.8 0.00 1.37 0.05 80 1016.0
20260505234520 15 209 0.0 4.8 0.00 1.40 0.05 81 1015.9
20260505234011 15 221 0.0 4.8 0.00 1.42 0.05 80 1015.8
20260505233509 14 196 0.0 4.8 0.00 1.42 0.05 79 1015.8
20260505233025 14 196 0.0 3.2 0.00 1.42 0.05 79 1015.9
20260505232512 14 215 0.0 4.8 0.00 1.45 0.05 80 1015.9
20260505232011 14 182 0.0 6.4 0.00 1.47 0.05 79 1015.9
20260505231510 14 211 1.6 6.4 0.00 1.47 0.05 80 1015.9
20260505231008 14 205 0.0 4.8 0.00 1.47 0.05 81 1015.9
20260505230505 14 113 0.0 6.4 0.00 1.52 0.05 80 1015.9
20260505230018 14 229 0.0 6.4 0.00 1.55 0.05 81 1015.9
20260505225508 14 216 0.0 4.8 0.00 1.57 0.05 81 1015.8
20260505225008 14 193 0.0 4.8 0.00 1.60 0.05 81 1015.9
20260505224522 14 215 0.0 4.8 0.00 1.63 0.05 82 1015.9
20260505224002 14 181 0.0 6.4 0.00 1.63 0.05 82 1015.9
20260505223503 14 194 1.6 6.4 0.00 1.63 0.05 81 1015.9
20260505223004 14 236 0.0 6.4 0.00 1.63 0.05 82 1016.0
20260505222503 14 185 0.0 6.4 0.00 1.63 0.05 82 1016.0
20260505222005 14 207 0.0 4.8 0.00 1.63 0.05 83 1016.0
20260505221506 14 209 0.0 4.8 0.00 1.65 0.05 82 1016.1
20260505221004 14 266 0.0 4.8 0.00 1.65 0.05 81 1016.1
20260505220504 14 229 0.0 8.0 0.00 1.65 0.05 81 1016.2
20260505220003 14 223 3.2 8.0 0.00 1.65 0.05 82 1016.2
20260505215503 14 204 0.0 8.0 0.00 1.65 0.05 82 1016.2
20260505215003 14 152 0.0 8.0 0.00 1.68 0.05 81 1016.2
20260505214503 14 219 1.6 6.4 0.00 1.68 0.05 81 1016.1
20260505214002 14 199 0.0 6.4 0.00 1.70 0.05 80 1016.2
20260505213502 14 177 1.6 6.4 0.00 1.73 0.05 81 1016.2
20260505213008 14 184 1.6 8.0 0.00 1.75 0.05 80 1016.2
20260505212506 14 279 0.0 8.0 0.00 1.78 0.05 82 1016.1
20260505212004 14 204 0.0 6.4 0.00 1.78 0.05 80 1016.2
20260505211506 14 197 1.6 6.4 0.00 1.78 0.05 80 1016.2
20260505211005 14 234 1.6 8.0 0.00 1.78 0.05 81 1016.2
20260505210508 14 261 1.6 8.0 0.00 1.78 0.05 81 1016.2
20260505210004 14 276 0.0 8.0 0.00 1.80 0.05 82 1016.2
20260505205504 13 299 0.0 9.7 0.00 1.80 0.05 82 1016.2
20260505205004 13 196 4.8 9.7 0.00 1.80 0.05 81 1016.2
20260505204503 13 216 1.6 6.4 0.00 1.80 0.05 81 1016.2
20260505204003 13 313 1.6 11.3 0.00 1.80 0.05 82 1016.2
20260505203503 13 231 1.6 11.3 0.00 1.80 0.05 81 1016.2
20260505203004 13 225 1.6 11.3 0.00 1.80 0.05 82 1016.2
20260505202506 13 243 0.0 8.0 0.00 1.80 0.05 82 1016.2
20260505202003 13 261 0.0 8.0 0.00 1.80 0.05 83 1016.2
20260505201512 13 188 1.6 6.4 0.00 1.80 0.05 82 1016.2
20260505201003 13 250 1.6 6.4 0.00 1.80 0.05 83 1016.2
20260505200504 13 267 0.0 4.8 0.00 1.80 0.05 83 1016.2
20260505200004 13 266 0.0 3.2 0.00 1.80 0.05 84 1016.3
20260505195502 13 271 0.0 3.2 0.00 1.80 0.05 84 1016.3
20260505195002 13 232 0.0 3.2 0.00 1.80 0.05 83 1016.3
20260505194508 13 219 0.0 9.7 0.00 1.80 0.05 83 1016.3
20260505194004 13 226 0.0 9.7 0.00 1.80 0.05 84 1016.3
20260505193506 13 202 1.6 9.7 0.00 1.80 0.05 84 1016.3
20260505192508 13 215 1.6 12.9 0.00 1.80 0.05 84 1016.3
20260505192009 13 240 0.0 9.7 0.00 1.83 0.05 83 1016.3
20260505191512 13 225 3.2 11.3 0.00 1.83 0.05 81 1016.4
20260505191006 13 255 4.8 11.3 0.00 1.83 0.05 82 1016.3
20260505190504 13 217 3.2 9.7 0.00 1.85 0.05 83 1016.3
20260505185507 13 202 3.2 11.3 0.00 1.88 0.05 83 1016.2
20260505185005 13 221 0.0 8.0 0.00 1.88 0.05 84 1016.2
20260505184510 13 200 0.0 8.0 0.00 1.91 0.05 83 1016.1
20260505184006 13 171 3.2 8.0 0.00 1.91 0.05 83 1016.2
20260505183507 13 237 1.6 8.0 0.00 1.91 0.05 85 1016.1
20260505181512 12 238 0.0 9.7 0.00 1.91 0.05 86 1016.1
20260505181004 12 225 1.6 9.7 0.00 1.91 0.05 85 1016.0
20260505180506 12 213 0.0 6.4 0.00 1.91 0.05 86 1016.0
20260505180008 12 94 0.0 6.4 0.00 1.91 0.05 87 1016.0
20260505175507 12 219 0.0 6.4 0.00 1.91 0.05 87 1016.0
20260505175006 12 198 1.6 4.8 0.00 1.91 0.05 89 1016.0
20260505174509 12 183 0.0 4.8 0.00 1.91 0.05 91 1015.9
20260505174006 11 188 0.0 4.8 0.00 1.91 0.05 91 1015.8
20260505173512 11 225 0.0 6.4 0.00 1.91 0.05 90 1015.8
20260505173012 11 235 1.6 9.7 0.00 1.91 0.05 92 1015.7
20260505172507 11 246 0.0 9.7 0.00 1.91 0.05 93 1015.6
20260505172006 11 202 1.6 9.7 0.00 1.91 0.05 94 1015.7
20260505171511 11 221 0.0 9.7 0.00 1.91 0.05 93 1015.8
20260505170009 10 226 0.0 4.8 0.00 1.91 0.05 95 1015.9
20260505165503 10 191 0.0 4.8 0.00 1.91 0.05 95 1016.0
20260505165003 10 294 0.0 6.4 0.00 1.93 0.05 95 1015.9
20260505164511 10 239 1.6 6.4 0.00 1.96 0.05 96 1015.9
20260505164004 10 172 0.0 8.0 0.00 1.96 0.05 95 1015.8
20260505163510 10 191 1.6 8.0 0.00 1.96 0.05 96 1015.8
20260505163016 10 188 1.6 6.4 0.00 1.96 0.05 96 1015.7
20260505162507 10 216 1.6 6.4 0.00 1.96 0.05 96 1015.7
20260505162010 10 182 0.0 3.2 0.00 1.96 0.05 96 1015.7
20260505161517 10 180 0.0 3.2 0.00 1.96 0.05 96 1015.8
20260505161008 10 194 0.0 6.4 0.00 1.96 0.05 96 1015.7
20260505160509 10 223 0.0 6.4 0.00 1.96 0.05 96 1015.7
20260505153016 9 214 1.6 6.4 0.00 1.96 0.05 96 1015.6
20260505152508 9 234 1.6 4.8 0.00 1.96 0.05 96 1015.7
20260505152013 9 195 0.0 8.0 0.00 1.96 0.05 96 1015.6
20260505151513 9 204 1.6 9.7 0.00 1.96 0.05 96 1015.6
20260505151009 9 263 3.2 9.7 0.00 1.96 0.05 96 1015.6
20260505150511 9 209 3.2 6.4 0.00 1.96 0.05 96 1015.5
20260505140507 9 229 1.6 8.0 0.00 1.96 0.05 96 1014.9
20260505125009 9 184 0.0 1.6 0.00 1.96 0.05 96 1014.6
20260505124507 9 184 0.0 1.6 0.00 1.96 0.05 96 1014.6
20260505124005 9 182 0.0 1.6 0.00 1.96 0.05 96 1014.5